User: anonymous   Login
Location: Unspecified
(0.0000°N, 0.0000°E)
Time: 20:38:42
(UTC+00:00)
Language:

SICRAL 1 - Orbit

View from above orbital plane
View from above orbital plane
View from above satellite
View from above satellite

Ground track
Ground track

The orbit data is extracted from the following two-line orbital elements,

1 26694U 01005A   18048.68049941 0.00000000  00000-0  00000-0 0    08
2 26694   7.6854  48.8850 0006291 266.2132  93.7217  1.00270000    01
Epoch (UTC): 17 February 2018 16:19:55
Eccentricity: 0.0006291
inclination: 7.6854°
perigee height: 35760 km
apogee height: 35813 km
right ascension of ascending node: 48.8850°
argument of perigee: 266.2132°
revolutions per day: 1.00270000
mean anomaly at epoch: 93.7217°
orbit number at epoch: 0

The dashed part of the orbit path shows where the satellite is in the earth's shadow,  

DLR